Terminal Aerodrome Forecast
Issued by NWS Boise, ID

Home | Current Version | Previous Version | Text Only | Print | Product List | Glossary On
Versions: 1 2 3 4 5 6 7 8 9 10 11 12 13 14 15 16 17 18 19 20 21 22 23 24 25 26 27 28 29 30 31 32 33 34 35 36
000
FTUS45 KBOI 140520
TAFBNO
TAF
KBNO 140520Z 1406/1506 VRB05KT P6SM OVC050
     FM141200 VRB04KT P6SM VCSH OVC040
      TEMPO 1412/1414 6SM -RASN BR BKN030
     FM141400 VRB03KT 6SM -RASN BR SCT020 OVC035
     FM141700 24008KT P6SM -RA SCT025 OVC045=

USA.gov is the U.S. government's official web portal to all federal, state and local government web resources and services.